| time (UTC) | temp F | wind direction | speed MPH | gust MPH | rain 1hr in | rain 24hr in | rain mn in | humidity % | barometer mb |
| 20260508134545 | 58 | 63 | 5.0 | 8.0 | 0.00 | 0.83 | 0.00 | 90 | 1014.6 |
| 20260508133054 | 58 | 60 | 3.0 | 7.0 | 0.00 | 0.83 | 0.00 | 91 | 1014.9 |
| 20260508131541 | 58 | 82 | 3.0 | 10.0 | 0.00 | 0.83 | 0.00 | 91 | 1014.2 |
| 20260508130054 | 57 | 48 | 3.0 | 8.0 | 0.00 | 0.83 | 0.00 | 91 | 1014.1 |
| 20260508124544 | 57 | 57 | 4.0 | 8.0 | 0.00 | 0.83 | 0.00 | 91 | 1014.2 |
| 20260508123043 | 57 | 46 | 3.0 | 8.0 | 0.00 | 0.83 | 0.00 | 90 | 1014.5 |
| 20260508121559 | 58 | 65 | 4.0 | 8.0 | 0.00 | 0.83 | 0.00 | 90 | 1014.4 |
| 20260508120045 | 58 | 96 | 4.0 | 7.0 | 0.00 | 0.83 | 0.00 | 89 | 1014.4 |
| 20260508114545 | 58 | 96 | 3.0 | 6.0 | 0.00 | 0.83 | 0.00 | 90 | 1014.6 |
| 20260508113047 | 58 | 65 | 3.0 | 5.0 | 0.00 | 0.83 | 0.00 | 90 | 1014.7 |
| 20260508111543 | 58 | 90 | 2.0 | 5.0 | 0.00 | 0.83 | 0.00 | 89 | 1014.5 |
| 20260508110054 | 58 | 43 | 2.0 | 4.0 | 0.00 | 0.83 | 0.00 | 90 | 1014.7 |
| 20260508104545 | 58 | 39 | 1.0 | 4.0 | 0.00 | 0.83 | 0.00 | 90 | 1014.7 |
| 20260508103045 | 58 | 53 | 2.0 | 5.0 | 0.00 | 0.83 | 0.00 | 90 | 1014.5 |
| 20260508101540 | 58 | 175 | 2.0 | 4.0 | 0.00 | 0.83 | 0.00 | 90 | 1014.4 |
| 20260508100049 | 57 | 175 | 0.0 | 2.0 | 0.00 | 0.83 | 0.00 | 90 | 1014.5 |
| 20260508094557 | 57 | 0 | 0.0 | 4.0 | 0.00 | 0.83 | 0.00 | 90 | 1014.2 |
| 20260508093046 | 57 | 175 | 1.0 | 3.0 | 0.00 | 0.83 | 0.00 | 90 | 1014.1 |
| 20260508091554 | 57 | 0 | 0.0 | 2.0 | 0.00 | 0.83 | 0.00 | 91 | 1014.1 |
| 20260508090040 | 57 | 0 | 1.0 | 3.0 | 0.00 | 0.83 | 0.00 | 90 | 1014.2 |
| 20260508084545 | 57 | 175 | 2.0 | 6.0 | 0.00 | 0.83 | 0.00 | 90 | 1014.4 |
| 20260508083119 | 57 | 175 | 2.0 | 7.0 | 0.00 | 0.83 | 0.00 | 90 | 1014.4 |
| 20260508081553 | 57 | 173 | 4.0 | 7.0 | 0.00 | 0.83 | 0.00 | 90 | 1014.7 |
| 20260508080100 | 57 | 140 | 8.0 | 14.0 | 0.00 | 0.83 | 0.00 | 89 | 1014.7 |
| 20260508074542 | 57 | 153 | 7.0 | 11.0 | 0.00 | 0.83 | 0.00 | 89 | 1014.8 |
| 20260508073045 | 57 | 135 | 6.0 | 11.0 | 0.00 | 0.83 | 0.00 | 88 | 1015.1 |
| 20260508071544 | 57 | 142 | 5.0 | 9.0 | 0.00 | 0.83 | 0.00 | 88 | 1015.2 |
| 20260508070044 | 57 | 100 | 3.0 | 7.0 | 0.00 | 0.83 | 0.00 | 87 | 1015.5 |
| 20260508064602 | 57 | 24 | 6.0 | 8.0 | 0.00 | 0.83 | 0.00 | 87 | 1016.0 |
| 20260508063047 | 57 | 34 | 4.0 | 7.0 | 0.00 | 0.83 | 0.00 | 88 | 1016.1 |
| 20260508061545 | 57 | 10 | 3.0 | 6.0 | 0.00 | 0.83 | 0.00 | 88 | 1016.3 |
| 20260508060041 | 57 | 17 | 3.0 | 4.0 | 0.00 | 0.83 | 0.00 | 88 | 1016.2 |
| 20260508054548 | 57 | 87 | 0.0 | 3.0 | 0.00 | 0.83 | 0.00 | 88 | 1015.9 |
| 20260508053038 | 57 | 88 | 0.0 | 6.0 | 0.00 | 0.83 | 0.00 | 88 | 1015.7 |
| 20260508051545 | 57 | 0 | 0.0 | 4.0 | 0.00 | 0.83 | 0.00 | 88 | 1015.8 |
| 20260508050049 | 57 | 0 | 1.0 | 5.0 | 0.00 | 0.83 | 0.00 | 87 | 1016.0 |
| 20260508044540 | 57 | 107 | 3.0 | 7.0 | 0.00 | 0.83 | 0.83 | 87 | 1016.1 |
| 20260508043045 | 57 | 109 | 1.0 | 2.0 | 0.00 | 0.83 | 0.83 | 87 | 1016.4 |
| 20260508041544 | 57 | 109 | 1.0 | 4.0 | 0.00 | 0.83 | 0.83 | 87 | 1016.3 |
| 20260508040047 | 57 | 97 | 1.0 | 4.0 | 0.00 | 0.83 | 0.83 | 87 | 1016.4 |
| 20260508034549 | 57 | 0 | 0.0 | 4.0 | 0.00 | 0.83 | 0.83 | 87 | 1016.5 |
| 20260508033047 | 57 | 98 | 2.0 | 6.0 | 0.00 | 0.83 | 0.83 | 87 | 1016.3 |
| 20260508031544 | 57 | 96 | 2.0 | 3.0 | 0.00 | 0.83 | 0.83 | 87 | 1016.4 |
| 20260508030056 | 57 | 92 | 2.0 | 4.0 | 0.00 | 0.83 | 0.83 | 87 | 1016.4 |
| 20260508024554 | 57 | 88 | 1.0 | 5.0 | 0.00 | 0.83 | 0.83 | 87 | 1016.4 |
| 20260508023047 | 57 | 0 | 0.0 | 2.0 | 0.00 | 0.83 | 0.83 | 87 | 1016.5 |
| 20260508021545 | 57 | 156 | 2.0 | 7.0 | 0.00 | 0.83 | 0.83 | 87 | 1016.2 |
| 20260508020048 | 57 | 157 | 4.0 | 7.0 | 0.00 | 0.83 | 0.83 | 87 | 1016.4 |
| 20260508014545 | 57 | 142 | 2.0 | 6.0 | 0.00 | 0.83 | 0.83 | 87 | 1016.0 |
| 20260508013045 | 57 | 121 | 2.0 | 7.0 | 0.00 | 0.83 | 0.83 | 87 | 1015.6 |
| 20260508011558 | 57 | 111 | 6.0 | 10.0 | 0.00 | 0.83 | 0.83 | 86 | 1015.5 |
| 20260508010057 | 57 | 132 | 5.0 | 10.0 | 0.00 | 0.83 | 0.83 | 87 | 1015.7 |
| 20260508004555 | 57 | 121 | 3.0 | 8.0 | 0.00 | 0.83 | 0.83 | 87 | 1015.5 |
| 20260508003044 | 57 | 116 | 6.0 | 10.0 | 0.00 | 0.83 | 0.83 | 87 | 1015.7 |
| 20260508001546 | 57 | 138 | 8.0 | 10.0 | 0.00 | 0.83 | 0.83 | 87 | 1015.7 |
| 20260508000041 | 57 | 109 | 4.0 | 9.0 | 0.00 | 0.83 | 0.83 | 87 | 1016.0 |
| 20260507234545 | 57 | 117 | 5.0 | 9.0 | 0.00 | 0.83 | 0.83 | 87 | 1016.3 |
| 20260507233507 | 57 | 90 | 7.0 | 9.0 | 0.01 | 0.83 | 0.83 | 87 | 1015.8 |
| 20260507231550 | 56 | 118 | 4.0 | 7.0 | 0.01 | 0.83 | 0.83 | 88 | 1016.5 |
| 20260507230048 | 56 | 119 | 3.0 | 8.0 | 0.01 | 0.83 | 0.83 | 88 | 1016.5 |
| 20260507224557 | 56 | 117 | 6.0 | 9.0 | 0.01 | 0.83 | 0.83 | 88 | 1016.7 |
| 20260507223045 | 56 | 102 | 3.0 | 9.0 | 0.00 | 0.82 | 0.82 | 87 | 1016.8 |
| 20260507221546 | 56 | 122 | 5.0 | 9.0 | 0.00 | 0.82 | 0.82 | 87 | 1017.1 |
| 20260507220045 | 56 | 144 | 4.0 | 10.0 | 0.00 | 0.82 | 0.82 | 85 | 1017.3 |
| 20260507214544 | 56 | 119 | 7.0 | 13.0 | 0.00 | 0.82 | 0.82 | 86 | 1017.2 |
| 20260507213102 | 57 | 147 | 9.0 | 14.0 | 0.00 | 0.82 | 0.82 | 86 | 1017.7 |
| 20260507211546 | 0 | 0.0 | 0.0 | 0.00 | 0.82 | 0.82 | 1017.9 | ||
| 20260507210051 | 0 | 0.0 | 0.0 | 0.00 | 0.82 | 0.82 | 1017.9 | ||
| 20260507204553 | 0 | 0.0 | 0.0 | 0.30 | 0.82 | 0.82 | 1017.6 | ||
| 20260507203044 | 0 | 0.0 | 0.0 | 0.82 | 0.82 | 0.82 | 1017.9 | ||
| 20260507201543 | 54 | 8.0 | 11.0 | 0.82 | 0.82 | 0.82 | 89 | 1018.5 | |
| 20260507200046 | 53 | 61 | 5.0 | 12.0 | 0.82 | 0.82 | 0.82 | 88 | 1018.5 |
| 20260507194546 | 55 | 102 | 7.0 | 14.0 | 0.47 | 0.47 | 0.47 | 84 | 1018.8 |
| 20260507193045 | 58 | 74 | 8.0 | 15.0 | 0.00 | 0.00 | 0.00 | 77 | 1018.3 |
| 20260507191542 | 60 | 155 | 9.0 | 12.0 | 0.00 | 0.00 | 0.00 | 71 | 1019.1 |
| 20260507190042 | 60 | 101 | 4.0 | 13.0 | 0.00 | 0.00 | 0.00 | 69 | 1018.8 |
| 20260507184546 | 60 | 91 | 7.0 | 12.0 | 0.00 | 0.00 | 0.00 | 68 | 1018.9 |
| 20260507183048 | 60 | 99 | 8.0 | 13.0 | 0.00 | 0.00 | 0.00 | 68 | 1018.6 |
| 20260507181543 | 60 | 112 | 9.0 | 15.0 | 0.00 | 0.00 | 0.00 | 68 | 1019.1 |
| 20260507180049 | 61 | 71 | 11.0 | 16.0 | 0.00 | 0.00 | 0.00 | 65 | 1019.3 |
| 20260507174545 | 61 | 44 | 10.0 | 18.0 | 0.00 | 0.00 | 0.00 | 66 | 1019.4 |
| 20260507173053 | 60 | 54 | 11.0 | 17.0 | 0.00 | 0.00 | 0.00 | 67 | 1019.0 |
| 20260507171549 | 61 | 64 | 10.0 | 18.0 | 0.00 | 0.00 | 0.00 | 67 | 1019.4 |
| 20260507170046 | 60 | 80 | 10.0 | 17.0 | 0.00 | 0.00 | 0.00 | 67 | 1019.8 |
| 20260507164941 | 59 | 82 | 9.0 | 19.0 | 0.00 | 0.00 | 0.00 | 69 | 1019.5 |
| 20260507163044 | 59 | 57 | 8.0 | 15.0 | 0.00 | 0.00 | 0.00 | 71 | 1019.8 |
| 20260507161543 | 58 | 82 | 10.0 | 15.0 | 0.00 | 0.00 | 0.00 | 71 | 1020.0 |
| 20260507160057 | 58 | 44 | 11.0 | 21.0 | 0.00 | 0.00 | 0.00 | 73 | 1019.6 |
| 20260507154546 | 57 | 59 | 11.0 | 17.0 | 0.00 | 0.00 | 0.00 | 75 | 1019.6 |
| 20260507153049 | 56 | 52 | 11.0 | 18.0 | 0.00 | 0.00 | 0.00 | 76 | 1020.0 |
| 20260507151548 | 55 | 59 | 11.0 | 17.0 | 0.00 | 0.00 | 0.00 | 77 | 1020.2 |
| 20260507150044 | 55 | 53 | 10.0 | 18.0 | 0.00 | 0.00 | 0.00 | 78 | 1020.2 |
| 20260507144548 | 55 | 65 | 11.0 | 18.0 | 0.00 | 0.00 | 0.00 | 78 | 1020.0 |
| 20260507143043 | 55 | 89 | 12.0 | 17.0 | 0.00 | 0.00 | 0.00 | 79 | 1019.9 |
| 20260507141555 | 54 | 61 | 10.0 | 17.0 | 0.00 | 0.00 | 0.00 | 81 | 1020.1 |